Home > Weather > Lustenau > Past weeks

Flag for Austria Weather for the Past 2 Weeks in Lustenau, Vorarlberg, Austria

Now
45 °F

Broken clouds.


Feels Like: 41 °F
Forecast: 39 / 46 °F
Wind: 7 mph from South

Location: Saint Gallen-Altenrhein

Current Time: Feb 13, 2016 at 10:25:56 AM

Latest Report: Feb 13, 2016 at 9:50 AM


Visibility: N/A

Pressure: 29.36 "Hg

Humidity: 71%

Dew point: 36 °F

Location of LustenauLocation

Historic Weather in Lustenau — Graph

°F

Lustenau Temperature Yesterday

Maximum temperature yesterday: 46 °F (at 5:20 PM)
Minimum temperature yesterday: 34 °F (at 12:20 AM)
Average temperature yesterday: 39 °F

High & Low Weather Summary for the Past Weeks

 TemperatureHumidityPressure
High61 °F (Feb 7, 10:20 AM)100% (Jan 29, 9:20 AM)30.48 "Hg (Jan 29, 9:20 AM)
Low32 °F (Feb 6, 12:20 AM)29% (Feb 6, 10:50 PM)29.30 "Hg (Feb 9, 4:20 PM)
Average43 °F76%29.97 "Hg
* Reported Jan 29 9:20 AM — Feb 13 9:20 AM, Lustenau, Weather by CustomWeather, © 2016

Note: Actual official high and low records may vary slightly from our data, if they occured in-between our weather recording intervals... More about our weather records

Advertising

Lustenau Weather History for the Previous 24 Hours

 ConditionsComfort  
Time TempWeatherWind HumidityBarometerVisibility
9:20 AM
Sat, Feb 13
43 °FPartly sunny.5 mph76%29.39 "HgN/A
8:50 AM39 °FBroken clouds.3 mph93%29.39 "HgN/A
8:20 AM37 °FBroken clouds.2 mph100%29.39 "HgN/A
7:50 AM37 °FBroken clouds.2 mph100%29.39 "Hg5 mi
7:20 AM37 °FSprinkles. Passing clouds.2 mph100%29.39 "Hg5 mi
6:50 AM37 °FDrizzle. Fog.2 mph93%29.39 "Hg2 mi
6:20 AM37 °FPassing clouds.1 mph100%29.39 "Hg3 mi
5:50 AM37 °FFog.1 mph100%29.39 "Hg2 mi
5:20 AM37 °FLight rain. Fog.2 mph93%29.39 "Hg2 mi
4:50 AM37 °FLight rain. Fog.3 mph100%29.39 "Hg2 mi
4:20 AM37 °FLight rain. Fog.2 mph100%29.39 "Hg2 mi
3:20 AM37 °FLight rain. Fog.2 mph100%29.39 "Hg2 mi
2:20 AM37 °FLight rain. Passing clouds.2 mph93%29.36 "HgN/A
1:50 AM37 °FPartly cloudy.6 mph93%29.36 "HgN/A
1:20 AM37 °FPartly cloudy.3 mph93%29.33 "HgN/A
12:50 AM39 °FLight rain. Passing clouds.2 mph87%29.36 "HgN/A
12:20 AM37 °FPassing clouds.3 mph87%29.33 "HgN/A
11:50 PM
Fri, Feb 12
37 °FOvercast.2 mph93%29.33 "HgN/A
11:20 PM37 °FPartly cloudy.1 mph93%29.33 "HgN/A
10:20 PM37 °FOvercast.2 mph87%29.36 "HgN/A
9:50 PM37 °FOvercast.1 mph87%29.36 "HgN/A
9:20 PM37 °FMostly cloudy.2 mph87%29.36 "HgN/A
8:50 PM37 °FPassing clouds.1 mph87%29.36 "HgN/A
8:20 PM39 °FPassing clouds.6 mph81%29.36 "HgN/A
7:50 PM39 °FPassing clouds.8 mph81%29.36 "HgN/A
7:20 PM39 °FPassing clouds.15 mph81%29.36 "HgN/A
6:50 PM39 °FPassing clouds.14 mph75%29.36 "HgN/A
6:20 PM41 °FScattered showers. Partly cloudy.10 mph66%29.33 "HgN/A
5:50 PM45 °FScattered showers. Partly cloudy.9 mph53%29.33 "Hg5 mi
5:20 PM46 °FScattered showers. Partly sunny.5 mph37%29.33 "Hg5 mi
4:50 PM45 °FOvercast.6 mph53%29.33 "HgN/A
4:20 PM45 °FOvercast.9 mph49%29.33 "HgN/A
3:50 PM45 °FSunny.7 mph53%29.36 "Hg10 mi
3:20 PM45 °FSunny.10 mph53%29.36 "Hg10 mi
2:50 PM45 °FSunny.10 mph53%29.39 "Hg10 mi
2:20 PM43 °FPassing clouds.12 mph57%29.42 "HgN/A
1:50 PM45 °FPassing clouds.10 mph57%29.45 "HgN/A
1:20 PM43 °FSunny.10 mph61%29.50 "Hg10 mi
12:50 PM45 °FSunny.13 mph53%29.50 "Hg10 mi
12:20 PM43 °FPassing clouds.12 mph61%29.50 "HgN/A
11:50 AM43 °FSunny.12 mph49%29.56 "Hg10 mi
11:20 AM41 °FSunny.12 mph61%29.56 "Hg10 mi
10:50 AM41 °FSunny.9 mph61%29.59 "Hg10 mi
10:20 AM41 °FSunny.3 mph61%29.59 "Hg10 mi
Weather by CustomWeather, © 2016

See weather overviewHow to use our weather pages